When you browse on this site, cookies collect data to enhance your experience and personalize the content and advertising you see.
Visit our Privacy Policy to learn more. By continuing to use the site, you agree to this use of cookies and data.
  • In Romania
  • List of Countries
  • For 7 days
  • Water Temperature
  • Satellite Maps
  • Weather Map
  • Weather Widgets
  • user-avatar
    Login

    Hourly Weather Arkadia

    Today, 24 May, Friday

    Time Temperature Precipitation Wind Pressure Humidity
    00:00 +7°C° 0 mm 2 mps 661 mmHg 80%
    01:00 +7°C° 0 mm 2 mps 660 mmHg 80%
    02:00 +7°C° 0 mm 1 mps 660 mmHg 80%
    03:00 +7°C° 0 mm 1 mps 660 mmHg 81%
    04:00 +7°C° 0 mm 1 mps 660 mmHg 81%
    05:00 +8°C° 0 mm 2 mps 661 mmHg 75%
    06:00 +10°C° 0 mm 2 mps 662 mmHg 69%
    07:00 +13°C° 0 mm 2 mps 662 mmHg 63%
    08:00 +14°C° 0 mm 2 mps 663 mmHg 56%
    09:00 +16°C° 0 mm 2 mps 664 mmHg 49%
    10:00 +18°C° 0 mm 2 mps 664 mmHg 41%
    11:00 +18°C° 0 mm 3 mps 664 mmHg 41%
    12:00 +19°C° 0 mm 3 mps 664 mmHg 41%
    13:00 +19°C° 0 mm 3 mps 665 mmHg 42%
    14:00 +19°C° 0.1 mm 3 mps 664 mmHg 46%
    15:00 +18°C° 0.1 mm 2 mps 664 mmHg 51%
    16:00 +17°C° 0.1 mm 2 mps 663 mmHg 55%
    17:00 +15°C° 0 mm 2 mps 663 mmHg 64%
    18:00 +14°C° 0 mm 2 mps 663 mmHg 72%
    19:00 +12°C° 0 mm 1 mps 662 mmHg 81%
    20:00 +11°C° 0 mm 1 mps 662 mmHg 85%
    21:00 +10°C° 0 mm 1 mps 662 mmHg 89%
    22:00 +9°C° 0 mm 1 mps 662 mmHg 93%
    23:00 +9°C° 0 mm 1 mps 662 mmHg 93%

    Tomorrow, 25 May, Saturday

    Time Temperature Precipitation Wind Pressure Humidity
    00:00 +9°C° 0 mm 1 mps 662 mmHg 93%
    01:00 +8°C° 0 mm 1 mps 662 mmHg 94%
    02:00 +8°C° 0 mm 1 mps 662 mmHg 92%
    03:00 +8°C° 0 mm 1 mps 662 mmHg 90%
    04:00 +8°C° 0 mm 1 mps 662 mmHg 88%
    05:00 +10°C° 0 mm 1 mps 663 mmHg 80%
    06:00 +12°C° 0 mm 1 mps 664 mmHg 71%
    07:00 +15°C° 0 mm 1 mps 665 mmHg 62%
    08:00 +18°C° 0 mm 1 mps 665 mmHg 54%
    09:00 +20°C° 0 mm 1 mps 666 mmHg 45%
    10:00 +22°C° 0 mm 1 mps 667 mmHg 37%
    11:00 +22°C° 0 mm 1 mps 667 mmHg 36%
    12:00 +23°C° 0 mm 1 mps 667 mmHg 35%
    13:00 +23°C° 0 mm 2 mps 667 mmHg 35%
    14:00 +23°C° 0 mm 2 mps 667 mmHg 38%
    15:00 +21°C° 0 mm 2 mps 666 mmHg 41%
    16:00 +20°C° 0 mm 2 mps 666 mmHg 44%
    17:00 +19°C° 0 mm 1 mps 665 mmHg 54%
    18:00 +16°C° 0 mm 1 mps 665 mmHg 64%
    19:00 +13°C° 0 mm 1 mps 664 mmHg 74%
    20:00 +13°C° 0 mm 1 mps 664 mmHg 77%
    21:00 +12°C° 0 mm 1 mps 664 mmHg 80%
    22:00 +12°C° 0 mm 1 mps 664 mmHg 83%
    23:00 +11°C° 0 mm 1 mps 664 mmHg 82%

    Day after tomorrow, 26 May, Sunday

    Time Temperature Precipitation Wind Pressure Humidity
    00:00 +11°C° 0 mm 1 mps 664 mmHg 81%
    01:00 +11°C° 0 mm 1 mps 663 mmHg 80%
    02:00 +10°C° 0 mm 0 mps 663 mmHg 79%
    03:00 +10°C° 0 mm 0 mps 663 mmHg 78%
    04:00 +10°C° 0 mm 0 mps 663 mmHg 76%
    05:00 +13°C° 0 mm 1 mps 664 mmHg 69%
    06:00 +15°C° 0 mm 1 mps 665 mmHg 61%
    07:00 +19°C° 0 mm 1 mps 665 mmHg 53%
    08:00 +20°C° 0 mm 1 mps 666 mmHg 47%
    09:00 +21°C° 0 mm 2 mps 666 mmHg 42%
    10:00 +24°C° 0 mm 2 mps 667 mmHg 36%
    11:00 +25°C° 0 mm 2 mps 667 mmHg 36%
    12:00 +25°C° 0 mm 2 mps 667 mmHg 36%
    13:00 +26°C° 0 mm 2 mps 668 mmHg 35%
    14:00 +25°C° 0 mm 1 mps 667 mmHg 39%
    15:00 +24°C° 0 mm 1 mps 667 mmHg 43%
    16:00 +23°C° 0 mm 1 mps 666 mmHg 47%
    17:00 +21°C° 0 mm 1 mps 666 mmHg 52%
    18:00 +19°C° 0 mm 1 mps 665 mmHg 57%
    19:00 +16°C° 0 mm 1 mps 664 mmHg 63%
    20:00 +16°C° 0 mm 1 mps 664 mmHg 63%
    21:00 +15°C° 0 mm 1 mps 664 mmHg 64%
    22:00 +14°C° 0 mm 1 mps 664 mmHg 64%
    23:00 +14°C° 0 mm 1 mps 664 mmHg 62%

    27 May, Monday

    Time Temperature Precipitation Wind Pressure Humidity
    00:00 +14°C° 0 mm 1 mps 664 mmHg 60%
    01:00 +14°C° 0 mm 1 mps 664 mmHg 57%
    02:00 +13°C° 0 mm 1 mps 663 mmHg 55%
    03:00 +13°C° 0 mm 1 mps 663 mmHg 53%
    04:00 +13°C° 0 mm 1 mps 663 mmHg 51%
    05:00 +15°C° 0 mm 1 mps 663 mmHg 49%
    06:00 +16°C° 0 mm 2 mps 664 mmHg 47%
    07:00 +17°C° 0 mm 2 mps 664 mmHg 44%
    08:00 +19°C° 0 mm 2 mps 665 mmHg 40%
    09:00 +21°C° 0 mm 2 mps 666 mmHg 35%
    10:00 +24°C° 0 mm 2 mps 666 mmHg 30%
    11:00 +25°C° 0 mm 2 mps 666 mmHg 29%
    12:00 +26°C° 0 mm 2 mps 666 mmHg 28%
    13:00 +26°C° 0 mm 2 mps 666 mmHg 27%
    14:00 +26°C° 0 mm 2 mps 666 mmHg 28%
    15:00 +26°C° 0 mm 2 mps 665 mmHg 29%
    16:00 +25°C° 0 mm 2 mps 665 mmHg 31%
    17:00 +23°C° 0 mm 2 mps 664 mmHg 38%
    18:00 +19°C° 0 mm 2 mps 664 mmHg 45%
    19:00 +18°C° 0 mm 1 mps 663 mmHg 51%
    20:00 +16°C° 0 mm 1 mps 663 mmHg 53%
    21:00 +15°C° 0 mm 1 mps 663 mmHg 55%
    22:00 +14°C° 0 mm 1 mps 663 mmHg 57%
    23:00 +14°C° 0 mm 1 mps 663 mmHg 57%

    28 May, Tuesday

    Time Temperature Precipitation Wind Pressure Humidity
    00:00 +13°C° 0 mm 1 mps 662 mmHg 57%
    01:00 +13°C° 0 mm 1 mps 662 mmHg 57%
    02:00 +12°C° 0 mm 1 mps 662 mmHg 58%
    03:00 +12°C° 0 mm 1 mps 662 mmHg 59%
    04:00 +11°C° 0 mm 1 mps 661 mmHg 60%
    05:00 +13°C° 0 mm 1 mps 662 mmHg 54%
    06:00 +16°C° 0 mm 1 mps 663 mmHg 48%
    07:00 +19°C° 0 mm 1 mps 664 mmHg 42%
    08:00 +19°C° 0 mm 2 mps 664 mmHg 40%
    09:00 +20°C° 0 mm 2 mps 665 mmHg 38%
    10:00 +21°C° 0 mm 3 mps 665 mmHg 36%
    11:00 +22°C° 0 mm 3 mps 665 mmHg 35%
    12:00 +22°C° 0 mm 3 mps 665 mmHg 35%
    13:00 +22°C° 0 mm 3 mps 665 mmHg 35%
    14:00 +22°C° 0 mm 3 mps 665 mmHg 37%
    15:00 +21°C° 0 mm 3 mps 665 mmHg 39%
    16:00 +20°C° 0 mm 3 mps 664 mmHg 42%
    17:00 +18°C° 0 mm 2 mps 664 mmHg 52%
    18:00 +16°C° 0 mm 2 mps 664 mmHg 62%
    19:00 +13°C° 0 mm 2 mps 663 mmHg 72%
    20:00 +12°C° 0 mm 1 mps 663 mmHg 77%
    21:00 +12°C° 0 mm 1 mps 663 mmHg 83%
    22:00 +11°C° 0 mm 1 mps 663 mmHg 88%
    23:00 +10°C° 0 mm 1 mps 663 mmHg 88%

    29 May, Wednesday

    Time Temperature Precipitation Wind Pressure Humidity
    00:00 +10°C° 0 mm 1 mps 663 mmHg 87%
    01:00 +10°C° 0 mm 1 mps 663 mmHg 87%
    02:00 +9°C° 0 mm 1 mps 663 mmHg 88%
    03:00 +9°C° 0 mm 1 mps 663 mmHg 88%
    04:00 +9°C° 0 mm 1 mps 663 mmHg 88%
    05:00 +11°C° 0 mm 1 mps 664 mmHg 81%
    06:00 +13°C° 0 mm 2 mps 665 mmHg 74%
    07:00 +16°C° 0 mm 2 mps 666 mmHg 66%
    08:00 +18°C° 0 mm 2 mps 666 mmHg 57%
    09:00 +20°C° 0 mm 2 mps 667 mmHg 49%
    10:00 +23°C° 0 mm 2 mps 668 mmHg 40%
    11:00 +24°C° 0 mm 2 mps 668 mmHg 38%
    12:00 +25°C° 0 mm 2 mps 668 mmHg 35%
    13:00 +25°C° 0 mm 2 mps 668 mmHg 33%
    14:00 +25°C° 0 mm 2 mps 668 mmHg 35%
    15:00 +24°C° 0 mm 2 mps 668 mmHg 36%
    16:00 +24°C° 0 mm 2 mps 667 mmHg 38%
    17:00 +21°C° 0 mm 1 mps 667 mmHg 48%
    18:00 +19°C° 0 mm 1 mps 666 mmHg 58%
    19:00 +15°C° 0 mm 1 mps 666 mmHg 68%
    20:00 +15°C° 0 mm 1 mps 665 mmHg 70%
    21:00 +14°C° 0 mm 1 mps 665 mmHg 73%
    22:00 +13°C° 0 mm 1 mps 665 mmHg 75%
    23:00 +13°C° 0 mm 1 mps 665 mmHg 72%
    Show more